AirNav   Bose ProFlight Series 2 Headset
 
 1590 users online  

3MO1 Police Dept Helicopter Maint Facility Heliport
Kansas City, Missouri, USA

GOING TO KANSAS CITY?


FAA INFORMATION EFFECTIVE 27 FEBRUARY 2020

Location

FAA Identifier: 3MO1
Lat/Long: 39-02-45.0190N 094-29-50.8320W
39-02.750317N 094-29.847200W
39.0458386,-94.4974533
(estimated)
Elevation: 855 ft. / 261 m (estimated)
Variation: 05E (1985)
From city: HELIPORT 7 SE KANSAS CITY MUNI.
Time zone: UTC -6 (UTC -5 during Daylight Saving Time)
Zip code: 64129

Heliport Operations

Heliport use: Private use. Permission required prior to landing
Activation date: 05/1972
Control tower: no
ARTCC: KANSAS CITY CENTER
FSS: COLUMBIA FLIGHT SERVICE STATION
Attendance: CONTINUOUS
Wind indicator: yes
Segmented circle: no

Heliport Communications

WX ASOS at MKC (6 nm NW): PHONE 816-329-2843
WX ASOS at LXT (8 nm SE): 124.175 (816-347-9807)
WX ASOS at OJC (16 nm SW): 119.35 (913-780-6969)
WX ASOS at MCI (18 nm NW): PHONE 816-329-2808
WX AWOS-3 at GPH (19 nm NE): 120.275 (816-407-3399)

Nearby radio navigation aids

VOR radial/distance  VOR name  Freq  Var
ANXr253/17.4NAPOLEON VORTAC114.0007E
MCIr137/18.2KANSAS CITY VORTAC113.2505E

Heliport Services

Airframe service: MAJOR
Powerplant service: MINOR

Runway Information

Helipad H1

Dimensions: 25 x 25 ft. / 8 x 8 m
Surface: concrete
Latitude: 39-02.750333N
Longitude: 094-29.847167W
Elevation: 855.0 ft.
Traffic pattern: leftleft

Helipad H2

Dimensions: 25 x 25 ft. / 8 x 8 m
Surface: concrete
Traffic pattern: leftleft

Helipad H3

Dimensions: 25 x 25 ft. / 8 x 8 m
Surface: concrete
Traffic pattern: leftleft

Heliport Ownership and Management from official FAA records

Ownership: Publicly-owned
Owner: BOARD OF POLICE COMMISSIONERS
1125 LOCUST
KANSAS CITY, MO 64129
Phone 816-234-5000
Manager: CAPT. SHAWN NICHOLS
4601 EASTERN
KANSAS CITY, MO 64129
Phone 816-929-2700

Heliport Operational Statistics

Aircraft based on the field: 3
Helicopters: 3
    

Additional Remarks

FOR CD CTC KANSAS CITY APCH AT 816-329-2710.

Instrument Procedures

There are no published instrument procedures at 3MO1.

Some nearby airports with instrument procedures:

KMKC - Charles B Wheeler Downtown Airport (6 nm NW)
KLXT - Lee's Summit Municipal Airport (8 nm SE)
3GV - East Kansas City Airport (13 nm E)
KOJC - Johnson County Executive Airport (16 nm SW)
KMCI - Kansas City International Airport (18 nm NW)
KGPH - Midwest National Air Center Airport (19 nm NE)
 
Loc | Ops | Rwys | IFR | FBO | Links
Com | Nav | Svcs | Stats | Notes

Kansas City Aviation Department
 
Area around 3MO1 (Police Dept Helicopter Maint Facility Heliport)
 
Road maps at: MapQuest Bing Google
 
Aerial photo
No photo
 
Sectional chart

 
Airport distance calculator
Flying to Police Dept Helicopter Maint Facility Heliport? Find the distance to fly.

From to 3MO1

Sunrise and sunset
Times for 27-Feb-2020
 Local
(UTC-6)
 Zulu
(UTC)
Morning civil twilight06:2812:28
Sunrise06:5412:54
Sunset18:0700:07
Evening civil twilight18:3400:34

Current date and time
Zulu (UTC)  27-Feb-2020 14:48:15
Local (UTC-6)  27-Feb-2020 08:48:15
 
METAR
KMKC 
6nm NW 
271354Z 22009KT 10SM SCT080 M01/M07 A3015 RMK AO2 SLP215 T10061072
KLXT 
8nm SE 
271353Z AUTO 22012KT 10SM OVC080 M01/M08 A3015 RMK AO2 SLP218 T10061078
KOJC 
16nm SW 
271353Z 23008G16KT 10SM CLR M02/M07 A3014 RMK AO2 SLP218 T10171072
KMCI 
19nm NW 
271353Z 22012KT 10SM BKN075 M01/M07 A3012 RMK AO2 SLP207 T10111067
KGPH 
19nm NE 
271435Z AUTO 18003KT 10SM SCT080 00/M06 A3015 RMK AO2
TAF
KMKC 
6nm NW 
271120Z 2712/2812 22007KT P6SM SCT100 FM271700 28008KT P6SM BKN050 FM280300 25004KT P6SM BKN025
KMCI 
19nm NW 
271120Z 2712/2812 22007KT P6SM SCT100 FM271700 29011KT P6SM BKN050 FM280300 25005KT P6SM BKN025
NOTAMs
Click for the latest NOTAMs
NOTAMs are issued by the DoD/FAA and will open in a separate window not controlled by AirNav.

 

 
 

Would you like to see your business listed on this page?

 If your business provides an interesting product or service to pilots, flight crews, aircraft, or users of the Police Dept Helicopter Maint Facility Heliport, you should consider listing it here.  To start the listing process, click on the button below
 
Add a business
 

Other Pages about Police Dept Helicopter Maint Facility Heliport

Update a link
 
Copyright © AirNav, LLC. All rights reserved. Privacy Policy  Contact